Weather History for CYBR - September, 2013

Change the Weather History Date:

Friday, September 6, 2013

  Actual Average Record
Temperature  
Mean Temperature 74 °F -  
Max Temperature 89 °F 68 °F 89 °F (2013)
Min Temperature 59 °F 46 °F 35 °F (2008)
Cooling Degree Days 9    
Growing Degree Days 24 (Base 50)    
Moisture  
Dew Point 63 °F    
Average Humidity 72    
Maximum Humidity 94    
Minimum Humidity 46    
Precipitation  
Precipitation 0.00 in - - ()
Sea Level Pressure  
Sea Level Pressure 29.92 in    
Wind  
Wind Speed 5 mph ()    
Max Wind Speed 18 mph    
Max Gust Speed 25 mph    
Visibility 14.1 miles    
Events Fog    
Averages and records for this station are not official NWS values.
T = Trace of Precipitation, MM = Missing Value Source: Averaged Metar Reports

Daily Weather History Graph

Daily Weather History Graph

Search for Another Location

Airport or City:

Trip Planner

Search our weather history database for the weather conditions in past years. The results will help you decide how hot, cold, wet, or windy it might be!

Date:

Astronomy

Sep. 06, 2013 Rise Set
Actual Time 7:02 AM CDT 8:12 PM CDT
Civil Twilight 6:29 AM CDT 8:45 PM CDT
Nautical Twilight 5:49 AM CDT 9:25 PM CDT
Astronomical Twilight 5:06 AM CDT 10:07 PM CDT
Moon 8:29 AM CDT (9/6) 8:22 PM CDT (9/6)
Length of Visible Light 14h 15m
Length of Day
13h 09m
New Moon, 2% of the Moon is Illuminated
Sep 6
New Moon
Sep 12
First Quarter
Sep 19
Full
Sep 26
Last Quarter
Oct 4
New

Hourly Weather History & Observations

Time (CDT) Temp. Heat Index Dew Point Humidity Pressure Visibility Wind Dir Wind Speed Gust Speed Precip Events Conditions
12:00 AM 66.2 °F - 62.6 °F 88% 29.94 in 15.0 mi North 3.5 mph - N/A   Clear
1:00 AM 66 °F - 63 °F 87% 29.94 in 15 mi NE 1.2 mph - -  
1:00 AM 66.2 °F - 62.6 °F 88% 29.94 in 15.0 mi Calm Calm - N/A   Clear
2:00 AM 64.4 °F - 62.6 °F 94% 29.93 in 15.0 mi NNW 3.5 mph - N/A   Clear
3:00 AM 64.4 °F - 60.8 °F 88% 29.91 in 15.0 mi NNW 4.6 mph - N/A   Clear
4:00 AM 64.4 °F - 62.6 °F 94% 29.90 in 15.0 mi NW 5.8 mph - N/A   Clear
5:00 AM 62.6 °F - 60.8 °F 94% 29.89 in 15.0 mi NNW 3.5 mph - N/A   Clear
6:00 AM 62.6 °F - 59.0 °F 88% 29.90 in 15.0 mi NW 3.5 mph - N/A   Partly Cloudy
7:00 AM 61 °F - 59 °F 90% 29.90 in 15 mi North 2.3 mph - -   Scattered Clouds
7:00 AM 60.8 °F - 59.0 °F 94% 29.90 in 15.0 mi Variable 2.3 mph - N/A   Scattered Clouds
8:00 AM 64.4 °F - 62.6 °F 94% 29.91 in 15.0 mi WSW 4.6 mph - N/A Fog Shallow Fog
9:00 AM 71.6 °F - 64.4 °F 78% 29.90 in 15.0 mi West 4.6 mph - N/A   Mostly Cloudy
10:00 AM 77.0 °F - 66.2 °F 69% 29.90 in 15.0 mi West 6.9 mph - N/A   Mostly Cloudy
11:00 AM 80.6 °F 83.2 °F 68.0 °F 65% 29.90 in 12.0 mi WSW 5.8 mph - N/A   Mostly Cloudy
12:00 PM 82.4 °F 85.4 °F 68.0 °F 62% 29.90 in 12.0 mi South 3.5 mph - N/A   Mostly Cloudy
1:00 PM 85 °F - 67 °F 46% 29.90 in 12 mi WSW 4.6 mph - -   Overcast
1:00 PM 86.0 °F 89.4 °F 68.0 °F 55% 29.90 in 12.0 mi WSW 5.8 mph - N/A   Overcast
2:00 PM 87.8 °F 90.4 °F 66.2 °F 49% 29.89 in 12.0 mi Variable 5.8 mph - N/A   Overcast
3:00 PM 89.6 °F 93.4 °F 68.0 °F 49% 29.88 in 12.0 mi West 10.4 mph - N/A   Overcast
4:00 PM 87.8 °F 91.4 °F 68.0 °F 52% 29.88 in 15.0 mi NW 6.9 mph - N/A   Overcast
5:00 PM 84.2 °F 87.3 °F 68.0 °F 58% 29.91 in 12.0 mi NE 18.4 mph - N/A   Overcast
6:00 PM 80.6 °F 82.7 °F 66.2 °F 61% 29.92 in 12.0 mi NE 11.5 mph - N/A   Overcast
7:00 PM 77.0 °F - 62.6 °F 61% 29.94 in 15.0 mi NE 15.0 mph 25.3 mph N/A   Mostly Cloudy
8:00 PM 75.2 °F - 60.8 °F 61% 29.94 in 15.0 mi NE 10.4 mph - N/A   Mostly Cloudy
9:00 PM 73.4 °F - 60.8 °F 65% 29.96 in 15.0 mi NE 11.5 mph - N/A   Mostly Cloudy
10:00 PM 71.6 °F - 57.2 °F 60% 29.99 in 15.0 mi NE 10.4 mph - N/A   Mostly Cloudy
11:00 PM 69.8 °F - 57.2 °F 64% 30.03 in 15.0 mi NE 12.7 mph - N/A   Overcast